Time,TemperatureF,DewpointF,PressureIn,WindDirection,WindDirectionDegrees,WindSpeedMPH,WindSpeedGustMPH,Humidity,HourlyPrecipIn,Conditions,Clouds,dailyrainin,SoftwareType,DateUTC
2013-09-01 00:04:00,64.6,64.3,29.81,West,270,0.0,-999.0,99,-99.99,,,0.00,Acu-Link.com,2013-09-01 04:04:00,
2013-09-01 00:19:00,64.6,64.3,29.82,West,270,2.2,-999.0,99,-99.99,,,0.00,Acu-Link.com,2013-09-01 04:19:00,
2013-09-01 00:34:00,64.6,64.3,29.82,West,270,2.7,-999.0,99,-99.99,,,0.00,Acu-Link.com,2013-09-01 04:34:00,
2013-09-01 00:49:00,64.4,63.8,29.82,WNW,292,0.0,-999.0,98,-99.99,,,0.00,Acu-Link.com,2013-09-01 04:49:00,
2013-09-01 01:05:00,64.0,63.7,29.83,West,270,0.0,-999.0,99,-99.99,,,0.00,Acu-Link.com,2013-09-01 05:05:00,
2013-09-01 01:20:00,63.5,63.2,29.83,SE,135,0.0,-999.0,99,-99.99,,,0.00,Acu-Link.com,2013-09-01 05:20:00,
2013-09-01 01:35:00,63.5,63.2,29.83,SW,225,0.0,-999.0,99,-99.99,,,0.00,Acu-Link.com,2013-09-01 05:35:00,
2013-09-01 01:50:00,63.3,63.0,29.82,West,270,1.7,-999.0,99,-99.99,,,0.00,Acu-Link.com,2013-09-01 05:50:00,
2013-09-01 02:06:00,63.1,62.8,29.81,NE,45,0.0,-999.0,99,-99.99,,,0.00,Acu-Link.com,2013-09-01 06:06:00,
2013-09-01 02:21:00,63.5,63.2,29.81,WSW,247,1.7,-999.0,99,-99.99,,,0.00,Acu-Link.com,2013-09-01 06:21:00,
2013-09-01 02:36:00,63.7,63.4,29.80,West,270,1.7,-999.0,99,-99.99,,,0.00,Acu-Link.com,2013-09-01 06:36:00,
2013-09-01 02:52:00,63.9,63.6,29.80,WSW,247,2.2,-999.0,99,-99.99,,,0.00,Acu-Link.com,2013-09-01 06:52:00,
2013-09-01 03:07:00,63.9,63.6,29.80,WSW,247,2.2,-999.0,99,-99.99,,,0.00,Acu-Link.com,2013-09-01 07:07:00,
2013-09-01 03:22:00,63.7,63.4,29.80,West,270,0.0,-999.0,99,-99.99,,,0.00,Acu-Link.com,2013-09-01 07:22:00,
2013-09-01 03:37:00,63.5,63.2,29.80,WSW,247,0.0,-999.0,99,-99.99,,,0.00,Acu-Link.com,2013-09-01 07:37:00,
2013-09-01 03:52:00,62.8,62.5,29.80,North,0,0.0,-999.0,99,-99.99,,,0.00,Acu-Link.com,2013-09-01 07:52:00,
2013-09-01 04:08:00,62.6,62.3,29.80,WSW,247,0.0,-999.0,99,-99.99,,,0.01,Acu-Link.com,2013-09-01 08:08:00,
2013-09-01 04:24:00,62.6,62.3,29.79,West,270,2.2,-999.0,99,-99.99,,,0.01,Acu-Link.com,2013-09-01 08:24:00,
2013-09-01 04:39:00,62.6,62.3,29.79,WSW,247,1.7,-999.0,99,-99.99,,,0.01,Acu-Link.com,2013-09-01 08:39:00,
2013-09-01 04:54:00,62.8,62.5,29.79,WNW,292,0.0,-999.0,99,-99.99,,,0.01,Acu-Link.com,2013-09-01 08:54:00,
2013-09-01 05:09:00,62.4,62.1,29.80,West,270,0.0,-999.0,99,-99.99,,,0.01,Acu-Link.com,2013-09-01 09:09:00,
2013-09-01 05:24:00,62.4,62.1,29.80,NNW,337,0.0,-999.0,99,-99.99,,,0.01,Acu-Link.com,2013-09-01 09:24:00,
2013-09-01 05:40:00,61.9,61.6,29.80,South,180,0.0,-999.0,99,-99.99,,,0.01,Acu-Link.com,2013-09-01 09:40:00,
2013-09-01 05:55:00,62.1,61.8,29.80,SSW,202,0.0,-999.0,99,-99.99,,,0.01,Acu-Link.com,2013-09-01 09:55:00,
2013-09-01 06:10:00,62.6,62.3,29.80,WSW,247,0.0,-999.0,99,-99.99,,,0.01,Acu-Link.com,2013-09-01 10:10:00,
2013-09-01 06:25:00,62.8,62.5,29.80,SW,225,0.0,-999.0,99,-99.99,,,0.01,Acu-Link.com,2013-09-01 10:25:00,
2013-09-01 06:41:00,62.8,62.5,29.80,SW,225,0.0,-999.0,99,-99.99,,,0.01,Acu-Link.com,2013-09-01 10:41:00,
2013-09-01 06:56:00,62.8,62.5,29.80,SSW,202,0.0,-999.0,99,-99.99,,,0.01,Acu-Link.com,2013-09-01 10:56:00,
2013-09-01 07:11:00,63.1,62.8,29.81,WSW,247,0.0,-999.0,99,-99.99,,,0.01,Acu-Link.com,2013-09-01 11:11:00,
2013-09-01 07:27:00,63.5,63.2,29.80,SE,135,0.0,-999.0,99,-99.99,,,0.01,Acu-Link.com,2013-09-01 11:27:00,
2013-09-01 07:42:00,65.7,65.1,29.81,WSW,247,2.2,-999.0,98,-99.99,,,0.01,Acu-Link.com,2013-09-01 11:42:00,
2013-09-01 07:57:00,68.4,66.9,29.81,SSW,202,0.0,-999.0,95,-99.99,,,0.01,Acu-Link.com,2013-09-01 11:57:00,
2013-09-01 08:13:00,70.7,68.3,29.81,ESE,112,0.0,-999.0,92,-99.99,,,0.01,Acu-Link.com,2013-09-01 12:13:00,
2013-09-01 08:28:00,74.5,71.0,29.81,SE,135,0.0,-999.0,89,-99.99,,,0.01,Acu-Link.com,2013-09-01 12:28:00,
2013-09-01 08:43:00,76.6,71.7,29.81,WSW,247,2.2,-999.0,85,-99.99,,,0.01,Acu-Link.com,2013-09-01 12:43:00,
2013-09-01 08:58:00,77.7,72.8,29.81,West,270,1.1,-999.0,85,-99.99,,,0.01,Acu-Link.com,2013-09-01 12:58:00,
2013-09-01 09:14:00,77.5,73.0,29.81,SW,225,1.1,-999.0,86,-99.99,,,0.01,Acu-Link.com,2013-09-01 13:14:00,
2013-09-01 09:29:00,74.1,70.6,29.81,West,270,0.0,-999.0,89,-99.99,,,0.01,Acu-Link.com,2013-09-01 13:29:00,
2013-09-01 09:44:00,74.7,71.2,29.81,SW,225,1.7,-999.0,89,-99.99,,,0.01,Acu-Link.com,2013-09-01 13:44:00,
2013-09-01 10:00:00,75.4,71.3,29.81,SW,225,2.7,-999.0,87,-99.99,,,0.01,Acu-Link.com,2013-09-01 14:00:00,
2013-09-01 10:15:00,76.1,71.9,29.81,West,270,0.0,-999.0,87,-99.99,,,0.01,Acu-Link.com,2013-09-01 14:15:00,
2013-09-01 10:30:00,77.4,73.6,29.81,WNW,292,0.0,-999.0,88,-99.99,,,0.01,Acu-Link.com,2013-09-01 14:30:00,
2013-09-01 10:46:00,77.4,73.2,29.81,WSW,247,2.2,-999.0,87,-99.99,,,0.01,Acu-Link.com,2013-09-01 14:46:00,
2013-09-01 11:01:00,77.4,72.2,29.81,SW,225,2.7,-999.0,84,-99.99,,,0.01,Acu-Link.com,2013-09-01 15:01:00,
2013-09-01 11:16:00,77.2,72.0,29.80,SW,225,2.2,-999.0,84,-99.99,,,0.01,Acu-Link.com,2013-09-01 15:16:00,
2013-09-01 11:31:00,76.5,71.6,29.78,West,270,2.2,-999.0,85,-99.99,,,0.01,Acu-Link.com,2013-09-01 15:31:00,
2013-09-01 11:47:00,76.8,72.3,29.78,SW,225,2.2,-999.0,86,-99.99,,,0.01,Acu-Link.com,2013-09-01 15:47:00,
2013-09-01 12:02:00,79.3,73.3,29.76,WSW,247,2.7,-999.0,82,-99.99,,,0.01,Acu-Link.com,2013-09-01 16:02:00,
2013-09-01 12:17:00,77.2,72.0,29.76,WSW,247,1.7,-999.0,84,-99.99,,,0.01,Acu-Link.com,2013-09-01 16:17:00,
2013-09-01 12:32:00,79.3,72.6,29.74,SSW,202,2.2,-999.0,80,-99.99,,,0.01,Acu-Link.com,2013-09-01 16:32:00,
2013-09-01 12:48:00,77.9,70.5,29.76,WSW,247,2.2,-999.0,78,-99.99,,,0.01,Acu-Link.com,2013-09-01 16:48:00,
2013-09-01 13:03:00,77.7,70.7,29.76,WSW,247,2.2,-999.0,79,-99.99,,,0.01,Acu-Link.com,2013-09-01 17:03:00,
2013-09-01 13:18:00,76.8,69.8,29.78,SW,225,1.7,-999.0,79,-99.99,,,0.01,Acu-Link.com,2013-09-01 17:18:00,
2013-09-01 13:33:00,76.8,69.0,29.78,SSW,202,2.2,-999.0,77,-99.99,,,0.01,Acu-Link.com,2013-09-01 17:33:00,
2013-09-01 13:49:00,75.2,68.6,29.78,WSW,247,2.2,-999.0,80,-99.99,,,0.01,Acu-Link.com,2013-09-01 17:49:00,
2013-09-01 14:04:00,77.0,69.6,29.76,WSW,247,1.1,-999.0,78,-99.99,,,0.01,Acu-Link.com,2013-09-01 18:04:00,
2013-09-01 14:19:00,79.5,70.1,29.74,SW,225,2.7,-999.0,73,-99.99,,,0.01,Acu-Link.com,2013-09-01 18:19:00,
2013-09-01 14:35:00,80.2,69.9,29.73,SW,225,1.7,-999.0,71,-99.99,,,0.01,Acu-Link.com,2013-09-01 18:35:00,
2013-09-01 14:50:00,78.3,69.3,29.74,NW,315,0.0,-999.0,74,-99.99,,,0.01,Acu-Link.com,2013-09-01 18:50:00,
2013-09-01 15:05:00,77.9,70.1,29.74,West,270,2.7,-999.0,77,-99.99,,,0.01,Acu-Link.com,2013-09-01 19:05:00,
2013-09-01 15:20:00,78.6,71.9,29.73,West,270,1.7,-999.0,80,-99.99,,,0.01,Acu-Link.com,2013-09-01 19:20:00,
2013-09-01 15:35:00,77.5,70.5,29.73,SW,225,0.0,-999.0,79,-99.99,,,0.01,Acu-Link.com,2013-09-01 19:35:00,
2013-09-01 15:51:00,78.6,73.0,29.72,WSW,247,1.7,-999.0,83,-99.99,,,0.01,Acu-Link.com,2013-09-01 19:51:00,
2013-09-01 16:06:00,77.7,71.8,29.72,SSW,202,0.0,-999.0,82,-99.99,,,0.01,Acu-Link.com,2013-09-01 20:06:00,
2013-09-01 16:21:00,77.9,71.9,29.72,WSW,247,2.2,-999.0,82,-99.99,,,0.01,Acu-Link.com,2013-09-01 20:21:00,
2013-09-01 16:37:00,76.8,70.5,29.71,SW,225,1.1,-999.0,81,-99.99,,,0.01,Acu-Link.com,2013-09-01 20:37:00,
2013-09-01 16:52:00,79.0,71.9,29.71,WSW,247,1.7,-999.0,79,-99.99,,,0.01,Acu-Link.com,2013-09-01 20:52:00,
2013-09-01 17:07:00,79.7,72.6,29.72,WSW,247,0.0,-999.0,79,-99.99,,,0.01,Acu-Link.com,2013-09-01 21:07:00,
2013-09-01 17:23:00,79.2,71.0,29.71,WSW,247,2.2,-999.0,76,-99.99,,,0.01,Acu-Link.com,2013-09-01 21:23:00,
2013-09-01 17:38:00,77.0,70.3,29.73,South,180,2.2,-999.0,80,-99.99,,,0.01,Acu-Link.com,2013-09-01 21:38:00,
2013-09-01 17:53:00,73.6,69.8,29.73,SW,225,2.2,-999.0,88,-99.99,,,0.01,Acu-Link.com,2013-09-01 21:53:00,
2013-09-01 18:08:00,71.1,68.0,29.73,WSW,247,2.2,-999.0,90,-99.99,,,0.01,Acu-Link.com,2013-09-01 22:08:00,
2013-09-01 18:23:00,72.5,69.1,29.73,SW,225,3.2,-999.0,89,-99.99,,,0.01,Acu-Link.com,2013-09-01 22:23:00,
2013-09-01 18:39:00,72.3,68.5,29.72,WSW,247,2.7,-999.0,88,-99.99,,,0.01,Acu-Link.com,2013-09-01 22:39:00,
2013-09-01 18:54:00,70.9,67.5,29.73,WSW,247,2.7,-999.0,89,-99.99,,,0.01,Acu-Link.com,2013-09-01 22:54:00,
2013-09-01 19:09:00,70.0,67.2,29.74,SW,225,3.2,-999.0,91,-99.99,,,0.01,Acu-Link.com,2013-09-01 23:09:00,
2013-09-01 19:25:00,69.4,67.0,29.74,SW,225,3.7,-999.0,92,-99.99,,,0.01,Acu-Link.com,2013-09-01 23:25:00,
2013-09-01 19:40:00,68.7,66.6,29.73,SSW,202,2.7,-999.0,93,-99.99,,,0.01,Acu-Link.com,2013-09-01 23:40:00,
2013-09-01 19:55:00,68.2,66.4,29.74,SW,225,2.7,-999.0,94,-99.99,,,0.01,Acu-Link.com,2013-09-01 23:55:00,
2013-09-01 20:10:00,67.8,66.0,29.75,SSW,202,2.7,-999.0,94,-99.99,,,0.01,Acu-Link.com,2013-09-02 00:10:00,
2013-09-01 20:26:00,67.3,66.1,29.75,WSW,247,2.2,-999.0,96,-99.99,,,0.01,Acu-Link.com,2013-09-02 00:26:00,
2013-09-01 20:41:00,67.1,65.9,29.76,West,270,2.2,-999.0,96,-99.99,,,0.01,Acu-Link.com,2013-09-02 00:41:00,
2013-09-01 20:56:00,67.1,65.9,29.76,WSW,247,0.0,-999.0,96,-99.99,,,0.01,Acu-Link.com,2013-09-02 00:56:00,
2013-09-01 21:11:00,67.1,66.2,29.76,SW,225,2.7,-999.0,97,-99.99,,,0.01,Acu-Link.com,2013-09-02 01:11:00,
2013-09-01 21:27:00,66.9,66.3,29.76,WSW,247,2.7,-999.0,98,-99.99,,,0.01,Acu-Link.com,2013-09-02 01:27:00,
2013-09-01 21:42:00,66.9,66.3,29.76,WSW,247,3.2,-999.0,98,-99.99,,,0.01,Acu-Link.com,2013-09-02 01:42:00,
2013-09-01 21:57:00,66.7,66.4,29.77,WSW,247,2.7,-999.0,99,-99.99,,,0.01,Acu-Link.com,2013-09-02 01:57:00,
2013-09-01 22:12:00,66.7,66.4,29.77,WSW,247,3.2,-999.0,99,-99.99,,,0.01,Acu-Link.com,2013-09-02 02:12:00,
2013-09-01 22:28:00,66.7,66.1,29.77,ESE,112,1.7,-999.0,98,-99.99,,,0.01,Acu-Link.com,2013-09-02 02:28:00,
2013-09-01 22:43:00,66.6,66.3,29.78,South,180,2.7,-999.0,99,-99.99,,,0.01,Acu-Link.com,2013-09-02 02:43:00,
2013-09-01 22:58:00,66.2,65.9,29.77,SSE,157,1.7,-999.0,99,-99.99,,,0.01,Acu-Link.com,2013-09-02 02:58:00,
2013-09-01 23:14:00,66.4,66.1,29.78,WNW,292,4.2,-999.0,99,-99.99,,,0.01,Acu-Link.com,2013-09-02 03:14:00,
2013-09-01 23:29:00,66.6,66.3,29.78,West,270,3.7,-999.0,99,-99.99,,,0.01,Acu-Link.com,2013-09-02 03:29:00,
2013-09-01 23:44:00,66.7,66.1,29.78,West,270,2.7,-999.0,98,-99.99,,,0.01,Acu-Link.com,2013-09-02 03:44:00,
2013-09-01 23:59:00,66.6,66.0,29.77,SW,225,3.7,-999.0,98,-99.99,,,0.01,Acu-Link.com,2013-09-02 03:59:00,